Regional Weather Roundup
Issued by NWS

Home | Current Version | Previous Version | Graphics & Text | Print | Product List | Glossary On
Versions: 1 2 3 4 5 6 7 8 9 10 11 12 13 14 15 16 17 18 19 20 21 22 23 24 25 26 27 28 29 30 31 32 33 34 35 36 37 38 39 40 41 42 43 44 45 46 47 48 49 50
438
ASUS43 KMPX 011510
RWRMN
WEATHER ROUNDUP FOR MINNESOTA
NATIONAL WEATHER SERVICE TWIN CITIES/CHANHASSEN MN
1000 AM CDT SUN MAY 01 2016


NOTE: "FAIR" INDICATES FEW OR NO CLOUDS BELOW 12,000 FEET WITH NO
SIGNIFICANT WEATHER AND/OR OBSTRUCTIONS TO VISIBILITY. N/A MEANS
CURRENT SKY AND/OR WEATHER CONDITIONS ARE NOT AVAILABLE.

MNZ060>063-068>070-011600-
   Twin Cities Metro

CITY           SKY/WX    TMP DP  RH WIND       PRES   REMARKS
TWIN CITIES    PTSUNNY   49  35  58 NE14      30.17S
ST PAUL        SUNNY     49  36  61 NE12      30.18S
CRYSTAL        SUNNY     50  36  58 NE9       30.16F
BLAINE         MOSUNNY   50  39  66 NE9G17    30.17F
EDEN PRAIRIE   SUNNY     49  35  58 N10       30.15S
SOUTH ST PAUL  SUNNY     48  35  59 NE7       30.16F
LAKE ELMO      FAIR      48  37  66 NE9G17    30.17F
$$
MNZ001>005-007-008-013>017-022>024-027-028-011600-
   Northwest Minnesota

CITY           SKY/WX    TMP DP  RH WIND       PRES   REMARKS
BEMIDJI        SUNNY     50  30  47 NW6       30.28F
HALLOCK        SUNNY     55  25  30 CALM      30.30F
ROSEAU         SUNNY     52  36  54 CALM      30.30F
WARROAD        SUNNY     46  36  66 CALM      30.31F
THIEF RVR FALL SUNNY     52  30  43 NW5       30.31F
CROOKSTON      SUNNY     52  32  46 NW6       30.31F
FOSSTON        SUNNY     52  28  40 NW6       30.29F
DETROIT LAKES  SUNNY     50  32  50 N5        30.28F
MOORHEAD       SUNNY     52  28  40 N3        30.30F
PARK RAPIDS    SUNNY     50  28  42 VRB7      30.26F
MAHNOMEN       FAIR      50  30  47 NE3       30.29S
$$
MNZ006-009>011-018-025>026-011600-
   North Central Minnesota

CITY           SKY/WX    TMP DP  RH WIND       PRES   REMARKS
BAUDETTE       SUNNY     50  30  46 CALM      30.30F
FLAG ISLAND    SUNNY     45  30  57 SE5       30.30F
INTL FALLS     SUNNY     48  29  47 NE6       30.30F
WASKISH        SUNNY     48  34  57 W5        30.29F
BIG FORK       SUNNY     50  28  43 N6        30.28F
LONGVILLE      SUNNY     50  28  43 N7        30.25F
GRAND RAPIDS   SUNNY     46  27  46 N10       30.28S
CRANE LAKE     SUNNY     43  30  61 NE3       30.31S
ORR            SUNNY     46  27  46 CALM      30.25F
COOK           SUNNY     46  30  53 N5        30.27F
WALKER         FAIR      48  30  49 NE9       30.27F
$$
MNZ012-019>021-037-011600-
   Northeast Minnesota

CITY           SKY/WX    TMP DP  RH WIND       PRES   REMARKS
DULUTH         PTSUNNY   45  35  68 E13       30.25S
ELY            SUNNY     45  30  57 N7        30.26F
HIBBING        SUNNY     46  28  49 NE8       30.26F
EVELETH        SUNNY     46  30  53 NE9       30.27S
DULUTH HARBOR  CLOUDY    43  37  81 NE10      30.28S
TWO HARBORS    MOSUNNY   46  37  71 E14       30.25R
SILVER BAY     PTSUNNY   45  36  70 E13       30.26R
GRAND MARAIS     N/A     44  35  70 NE8       30.27R
G MARAIS ARPRT SUNNY     46  30  53 NE8       30.24S
$$
MNZ029>031-032-039>041-046>048-054>057-064-011600-
   West Central Minnesota

CITY           SKY/WX    TMP DP  RH WIND       PRES   REMARKS
FERGUS FALLS   SUNNY     48  30  49 NE8       30.26S
WHEATON        SUNNY     52  34  50 NE13      30.28S
MORRIS         SUNNY     50  34  53 NE15      30.23S
ALEXANDRIA     SUNNY     49  31  49 NE14      30.24F
ELBOW LAKE     FAIR      46  32  56 E10       30.26F
WADENA         SUNNY     46  30  53 NE12      30.25F
GLENWOOD       SUNNY     48  34  57 NE18      30.22F
APPLETON       SUNNY     50  34  53 NE15G24   30.22S
BENSON         SUNNY     48  32  53 E13G21    30.22S
ORTONVILLE     SUNNY     48  34  57 NE16G22   30.24R
MADISON        SUNNY     48  34  57 NE12      30.22S
WILLMAR        FAIR      48  37  66 NE16      30.21S
$$
MNZ033>034-036-042>043-049>051-058-059-011600-
   Central Minnesota

CITY           SKY/WX    TMP DP  RH WIND       PRES   REMARKS
ST CLOUD       SUNNY     48  33  56 NE14G20   30.21S
SAUK CENTRE    FAIR      47  32  56 NE15G21   30.22F
PAYNESVILLE    SUNNY     47  34  58 NE12G17   30.21F
AITKIN         SUNNY     50  28  43 N12       30.23F
PINE RIVER     SUNNY     50  34  53 N12G18    30.28S
BRAINERD       SUNNY     48  31  51 NE12      30.25F
STAPLES        SUNNY     46  30  53 NE10      30.25F
LONG PRAIRIE   FAIR      46  32  57 NE15G23   30.23F
LITTLE FALLS   SUNNY     46  32  57 NE7       30.23F
LITCHFIELD     SUNNY     48  37  66 NE12      30.19F
BUFFALO        SUNNY     48  36  63 NE15      30.20S
MAPLE LAKE     SUNNY     49  38  66 NE10G16   30.20F
HUTCHINSON     SUNNY     48  38  69 NE13G18   30.19S
$$
MNZ037-044-045-052-053-011600-
   East Central Minnesota

CITY           SKY/WX    TMP DP  RH WIND       PRES   REMARKS
PRINCETON        N/A     50  36  57 N12       30.21S
MORA           MOSUNNY   46  32  57 NE10      30.23S
CAMBRIDGE      SUNNY     50  36  57 N12G17    30.18F
RUSH CITY      SUNNY     49  36  61 NE12G18   30.21S
MOOSE LAKE     SUNNY     45  32  61 NE14G20   30.22F
HINCKLEY       FAIR      46  36  66 N14       30.22S
CLOQUET        PTSUNNY   45  34  65 E10       30.25S
MCGREGOR       SUNNY     46  34  61 NE7       30.25F
$$
MNZ071>073-080-081-089-090-097-098-011600-
   Southwest Minnesota

CITY           SKY/WX    TMP DP  RH WIND       PRES   REMARKS
MONTEVIDEO     SUNNY     50  36  57 E13G18    30.22S
GRANITE FALLS  SUNNY     49  37  63 NE14G20   30.21S
CANBY          SUNNY     49  38  66 NE9       30.23S
MARSHALL       SUNNY     44  34  67 N12       30.20S
REDWOOD FALLS  MOSUNNY   48  34  58 N12G17    30.17F
OLIVIA         SUNNY     50  34  53 NE16G22   30.18S
PIPESTONE      CLOUDY    41  36  81 NE15      30.16S
WINDOM         CLOUDY    45  39  81 N14       30.14S
WORTHINGTON    CLOUDY    41  37  86 N14       30.15R
JACKSON        CLOUDY    43  36  75 N17       30.13S
TRACY          CLOUDY    45  38  77 N10       30.18S
SLAYTON        CLOUDY    40  38  91 N16       30.17S
$$
MNZ065>067-074>077-082>085-091>093-011600-
   South Central Minnesota

CITY           SKY/WX    TMP DP  RH WIND       PRES   REMARKS
MANKATO        CLOUDY    46  37  71 N15       30.14S
NEW ULM        SUNNY     46  37  71 NE13      30.15S
ST JAMES       CLOUDY    41  36  81 N14       30.15F
FAIRMONT       CLOUDY    43  34  70 N12G17    30.11S
GLENCOE        SUNNY     48  39  72 N7        30.17S
FARIBAULT      CLOUDY    46  39  76 N13G20    30.14R
OWATONNA       CLOUDY    46  37  71 N14       30.12S
WASECA         CLOUDY    45  37  76 N16       30.13S
ALBERT LEA     CLOUDY    45  39  81 NE10      30.10R
$$
MNZ078>079-086>088-094>096-011600-
   Southeast Minnesota

CITY           SKY/WX    TMP DP  RH WIND       PRES   REMARKS
ROCHESTER      CLOUDY    45  37  73 NE14      30.10S
RED WING       CLOUDY    54  36  50 NE7       30.12F
STANTON        SUNNY     50  39  64 NE13      30.13S
DODGE CENTER   CLOUDY    45  41  87 NE14G20   30.10S
WINONA         CLOUDY    48  37  66 N5        30.12S
AUSTIN         CLOUDY    45  37  76 NE10G17   30.09S
PRESTON        CLOUDY    44  36  74 NE14      30.09S
$$
ABBREVIATIONS USED IN REMARKS
   TC - TEMPERATURES IN CELSIUS
  WCI - WIND CHILL INDEX
   HX - HEAT INDEX
  VSB - VISIBILITY
$$




USA.gov is the U.S. government's official web portal to all federal, state and local government web resources and services.